Flag for Japan Weather past 2 weeks in Nagasaki, Japan

Now
73 °F

Passing clouds.


Feels Like: 72 °F
Forecast: 73 / 79 °F
Wind: 2 mph from North

Location: Nagasaki Airport

Current Time: Sep 22, 2014 at 7:42:55 PM

Latest Report: Sep 22, 2014 at 7:00 PM


Visibility: N/A

Pressure: 29.98 "Hg

Humidity: 89%

Dew point: 70 °F

Location of NagasakiLocation

Historic Weather in Nagasaki — Graph

°F

Nagasaki temperature yesterday

Maximum temperature yesterday: 73 °F (at 12:00 PM)
Minimum temperature yesterday: 68 °F (at 7:00 AM)
Average temperature yesterday: 71 °F

Past Weeks' High & Low Weather Summary

 TemperatureHumidityPressure
High88 °F (Sep 8, 2:00 PM)100% (Sep 19, 6:00 PM)30.04 "Hg (Sep 19, 6:00 PM)
Low64 °F (Sep 19, 8:00 PM)35% (Sep 16, 12:00 PM)29.59 "Hg (Sep 8, 3:00 PM)
Average77 °F68%29.85 "Hg
* Reported Sep 7 7:00 PM — Sep 22 7:00 PM, Nagasaki, Weather by CustomWeather, © 2014

Note: Actual official high and low records may vary slightly from our data, if they occured in-between our weather recording intervals... More about our weather records

Advertising

Nagasaki weather history for previous 24 hours

 ConditionsComfort  
Time TempWeatherWind HumidityBarometerVisibility
7:00 PM
Sep 22
73 °FPassing clouds.2 mph89%29.98 "HgN/A
6:00 PM75 °FOvercast.5 mph83%29.95 "HgN/A
5:00 PM77 °FMore clouds than sun.5 mph79%29.95 "HgN/A
4:00 PM81 °FBroken clouds.1 mph66%29.95 "HgN/A
3:00 PM79 °FPartly sunny.3 mph70%29.98 "HgN/A
2:00 PM79 °FPartly sunny.5 mph70%29.98 "HgN/A
1:00 PM77 °FBroken clouds.8 mph79%30.01 "HgN/A
12:00 PM75 °FBroken clouds.3 mph83%29.98 "HgN/A
11:00 AM73 °FLight rain. Broken clouds.5 mph83%30.01 "HgN/A
10:00 AM73 °FScattered showers. Partly sunny.3 mph83%30.04 "HgN/A
9:00 AM73 °FBroken clouds.6 mph83%30.01 "HgN/A
8:00 AM72 °FPartly sunny.6 mph88%30.01 "HgN/A
7:00 AM72 °FLight rain. Partly sunny.5 mph88%30.01 "HgN/A
9:00 PM
Sep 21
70 °FPartly cloudy.3 mph94%29.98 "HgN/A
8:00 PM72 °FPassing clouds.2 mph88%29.98 "HgN/A
7:00 PM72 °FPassing clouds.1 mph83%29.95 "HgN/A
Weather by CustomWeather, © 2014

See weather overviewHow to use our weather pages